When you browse on this site, cookies collect data to enhance your experience and personalize the content and advertising you see.
Visit our Privacy Policy to learn more. By continuing to use the site, you agree to this use of cookies and data.
  • en Suisse
  • Liste des pays
  • À 7 jours
  • Température de l'eau
  • Carte satellitaire
  • Carte météo
  • Widgets météo
  • user-avatar
    Se connecter

    Météo par heure à Canillo

    Ce jour, 21 Janvier, Lundi

    Heure Température Précipitation Vent Pression Humidité
    00:00 -5°C° 0 mm 2 m/s 612 mmHg 90%
    01:00 -5°C° 0.2 mm 2 m/s 612 mmHg 90%
    02:00 -5°C° 0.2 mm 2 m/s 612 mmHg 90%
    03:00 -5°C° 0.2 mm 2 m/s 612 mmHg 90%
    04:00 -6°C° 0.1 mm 2 m/s 612 mmHg 90%
    05:00 -6°C° 0.1 mm 2 m/s 612 mmHg 90%
    06:00 -7°C° 0 mm 3 m/s 612 mmHg 89%
    07:00 -7°C° 0.2 mm 3 m/s 613 mmHg 86%
    08:00 -6°C° 0.2 mm 3 m/s 613 mmHg 83%
    09:00 -6°C° 0.2 mm 3 m/s 613 mmHg 80%
    10:00 -5°C° 0.1 mm 3 m/s 614 mmHg 76%
    11:00 -5°C° 0.1 mm 3 m/s 614 mmHg 73%
    12:00 -4°C° 0.1 mm 3 m/s 614 mmHg 69%
    13:00 -5°C° 0.1 mm 3 m/s 614 mmHg 69%
    14:00 -5°C° 0.1 mm 3 m/s 614 mmHg 69%
    15:00 -5°C° 0.1 mm 3 m/s 614 mmHg 69%
    16:00 -6°C° 0 mm 3 m/s 613 mmHg 75%
    17:00 -7°C° 0 mm 2 m/s 613 mmHg 81%
    18:00 -8°C° 0 mm 2 m/s 612 mmHg 87%
    19:00 -8°C° 0 mm 2 m/s 612 mmHg 87%
    20:00 -9°C° 0 mm 2 m/s 612 mmHg 87%
    21:00 -9°C° 0 mm 2 m/s 612 mmHg 87%
    22:00 -10°C° 0 mm 2 m/s 612 mmHg 84%
    23:00 -10°C° 0 mm 2 m/s 612 mmHg 82%

    Demain, 22 Janvier, Mardi

    Heure Température Précipitation Vent Pression Humidité
    00:00 -12°C° 0 mm 2 m/s 612 mmHg 79%
    01:00 -12°C° 0 mm 2 m/s 611 mmHg 73%
    02:00 -12°C° 0 mm 2 m/s 611 mmHg 67%
    03:00 -12°C° 0 mm 2 m/s 610 mmHg 61%
    04:00 -12°C° 0 mm 2 m/s 610 mmHg 58%
    05:00 -12°C° 0 mm 2 m/s 610 mmHg 55%
    06:00 -12°C° 0 mm 2 m/s 610 mmHg 52%
    07:00 -10°C° 0 mm 2 m/s 610 mmHg 51%
    08:00 -8°C° 0 mm 2 m/s 611 mmHg 51%
    09:00 -7°C° 0 mm 2 m/s 611 mmHg 50%
    10:00 -3°C° 0 mm 1 m/s 611 mmHg 46%
    11:00 -1°C° 0 mm 1 m/s 611 mmHg 42%
    12:00 +1°C° 0 mm 1 m/s 611 mmHg 38%
    13:00 0°C° 0.2 mm 1 m/s 610 mmHg 48%
    14:00 -1°C° 0.2 mm 1 m/s 609 mmHg 58%
    15:00 -1°C° 0.2 mm 1 m/s 608 mmHg 68%
    16:00 -4°C° 0.6 mm 2 m/s 608 mmHg 74%
    17:00 -5°C° 0.6 mm 3 m/s 608 mmHg 80%
    18:00 -7°C° 0.6 mm 4 m/s 607 mmHg 86%
    19:00 -7°C° 0.1 mm 3 m/s 607 mmHg 86%
    20:00 -7°C° 0.1 mm 2 m/s 606 mmHg 87%
    21:00 -8°C° 0.1 mm 2 m/s 606 mmHg 87%
    22:00 -7°C° 0.2 mm 2 m/s 606 mmHg 87%
    23:00 -7°C° 0.2 mm 2 m/s 606 mmHg 87%

    Après-demain, 23 Janvier, Mercredi

    Heure Température Précipitation Vent Pression Humidité
    00:00 -6°C° 0.2 mm 2 m/s 606 mmHg 87%
    01:00 -6°C° 0.6 mm 2 m/s 605 mmHg 87%
    02:00 -6°C° 0.6 mm 2 m/s 605 mmHg 88%
    03:00 -6°C° 0.6 mm 2 m/s 605 mmHg 88%
    04:00 -6°C° 0.5 mm 2 m/s 604 mmHg 89%
    05:00 -4°C° 0.5 mm 1 m/s 603 mmHg 90%
    06:00 -4°C° 0.5 mm 1 m/s 602 mmHg 90%
    07:00 -6°C° 1.8 mm 2 m/s 602 mmHg 92%
    08:00 -6°C° 1.8 mm 2 m/s 601 mmHg 93%
    09:00 -7°C° 1.8 mm 3 m/s 601 mmHg 95%
    10:00 -7°C° 1.7 mm 3 m/s 601 mmHg 94%
    11:00 -8°C° 1.7 mm 4 m/s 601 mmHg 93%
    12:00 -10°C° 1.7 mm 5 m/s 601 mmHg 92%
    13:00 -10°C° 0.9 mm 6 m/s 601 mmHg 92%
    14:00 -12°C° 0.9 mm 7 m/s 601 mmHg 91%
    15:00 -13°C° 0.9 mm 8 m/s 601 mmHg 91%
    16:00 -13°C° 0.4 mm 8 m/s 601 mmHg 91%
    17:00 -15°C° 0.4 mm 8 m/s 602 mmHg 91%
    18:00 -15°C° 0.4 mm 8 m/s 602 mmHg 92%
    19:00 -15°C° 0.6 mm 8 m/s 602 mmHg 92%
    20:00 -16°C° 0.6 mm 9 m/s 602 mmHg 92%
    21:00 -16°C° 0.6 mm 9 m/s 603 mmHg 93%
    22:00 -16°C° 1.1 mm 9 m/s 603 mmHg 93%
    23:00 -16°C° 1.1 mm 8 m/s 603 mmHg 94%

    24 Janvier, Jeudi

    Heure Température Précipitation Vent Pression Humidité
    00:00 -16°C° 1.1 mm 8 m/s 604 mmHg 94%
    01:00 -16°C° 0.7 mm 8 m/s 604 mmHg 94%
    02:00 -15°C° 0.7 mm 7 m/s 605 mmHg 94%
    03:00 -15°C° 0.7 mm 7 m/s 605 mmHg 94%
    04:00 -15°C° 0.5 mm 7 m/s 605 mmHg 93%
    05:00 -15°C° 0.5 mm 6 m/s 605 mmHg 92%
    06:00 -15°C° 0.5 mm 6 m/s 606 mmHg 91%
    07:00 -15°C° 0.2 mm 7 m/s 606 mmHg 90%
    08:00 -15°C° 0.2 mm 7 m/s 607 mmHg 88%
    09:00 -15°C° 0.2 mm 7 m/s 607 mmHg 87%
    10:00 -14°C° 0 mm 6 m/s 608 mmHg 85%
    11:00 -12°C° 0 mm 6 m/s 609 mmHg 83%
    12:00 -11°C° 0 mm 6 m/s 609 mmHg 81%
    13:00 -11°C° 0 mm 5 m/s 609 mmHg 80%
    14:00 -11°C° 0 mm 5 m/s 609 mmHg 79%
    15:00 -11°C° 0 mm 5 m/s 610 mmHg 78%
    16:00 -13°C° 0 mm 5 m/s 609 mmHg 80%
    17:00 -14°C° 0 mm 4 m/s 609 mmHg 82%
    18:00 -16°C° 0 mm 4 m/s 609 mmHg 83%
    19:00 -16°C° 0 mm 4 m/s 609 mmHg 79%
    20:00 -16°C° 0 mm 4 m/s 610 mmHg 75%
    21:00 -16°C° 0 mm 4 m/s 610 mmHg 71%
    22:00 -15°C° 0 mm 4 m/s 611 mmHg 71%
    23:00 -14°C° 0 mm 4 m/s 611 mmHg 71%

    25 Janvier, Vendredi

    Heure Température Précipitation Vent Pression Humidité
    00:00 -12°C° 0 mm 4 m/s 611 mmHg 72%
    01:00 -12°C° 0 mm 4 m/s 611 mmHg 75%
    02:00 -11°C° 0 mm 4 m/s 612 mmHg 78%
    03:00 -10°C° 0 mm 4 m/s 612 mmHg 81%
    04:00 -9°C° 0 mm 4 m/s 613 mmHg 84%
    05:00 -7°C° 0 mm 4 m/s 613 mmHg 87%
    06:00 -5°C° 0 mm 4 m/s 614 mmHg 91%
    07:00 -4°C° 0.1 mm 4 m/s 614 mmHg 91%
    08:00 -4°C° 0.1 mm 4 m/s 615 mmHg 91%
    09:00 -3°C° 0.1 mm 4 m/s 615 mmHg 91%
    10:00 -3°C° 0.1 mm 4 m/s 616 mmHg 91%
    11:00 -2°C° 0.1 mm 4 m/s 616 mmHg 91%
    12:00 -2°C° 0.1 mm 4 m/s 616 mmHg 90%
    13:00 -2°C° 0 mm 4 m/s 616 mmHg 91%
    14:00 -1°C° 0 mm 4 m/s 616 mmHg 91%
    15:00 -1°C° 0 mm 4 m/s 615 mmHg 91%
    16:00 -2°C° 0 mm 4 m/s 616 mmHg 92%
    17:00 -2°C° 0 mm 4 m/s 616 mmHg 93%
    18:00 -3°C° 0 mm 4 m/s 616 mmHg 93%
    19:00 -2°C° 0 mm 3 m/s 616 mmHg 93%
    20:00 -2°C° 0 mm 3 m/s 616 mmHg 93%
    21:00 -2°C° 0 mm 3 m/s 616 mmHg 93%
    22:00 -4°C° 0 mm 3 m/s 616 mmHg 93%
    23:00 -3°C° 0 mm 2 m/s 615 mmHg 93%

    26 Janvier, Samedi

    Heure Température Précipitation Vent Pression Humidité
    00:00 -4°C° 0 mm 2 m/s 615 mmHg 94%
    01:00 -5°C° 0 mm 2 m/s 615 mmHg 93%
    02:00 -5°C° 0 mm 2 m/s 614 mmHg 92%
    03:00 -6°C° 0 mm 2 m/s 614 mmHg 91%
    04:00 -6°C° 0 mm 2 m/s 613 mmHg 89%
    05:00 -6°C° 0 mm 2 m/s 613 mmHg 88%
    06:00 -7°C° 0 mm 2 m/s 613 mmHg 86%
    07:00 -5°C° 0 mm 2 m/s 614 mmHg 85%
    08:00 -4°C° 0 mm 2 m/s 614 mmHg 84%
    09:00 -1°C° 0 mm 1 m/s 615 mmHg 83%
    10:00 +1°C° 0 mm 1 m/s 615 mmHg 84%
    11:00 +2°C° 0 mm 1 m/s 615 mmHg 86%
    12:00 +3°C° 0 mm 0 m/s 615 mmHg 87%
    13:00 +2°C° 0 mm 0 m/s 615 mmHg 89%
    14:00 +2°C° 0 mm 0 m/s 614 mmHg 91%
    15:00 +2°C° 0 mm 0 m/s 614 mmHg 92%
    16:00 +1°C° 0 mm 0 m/s 613 mmHg 94%
    17:00 +1°C° 0 mm 1 m/s 613 mmHg 95%
    18:00 -1°C° 0 mm 1 m/s 612 mmHg 96%
    19:00 -1°C° 0 mm 1 m/s 612 mmHg 96%
    20:00 -2°C° 0 mm 1 m/s 612 mmHg 96%
    21:00 -2°C° 0 mm 1 m/s 611 mmHg 96%
    22:00 -3°C° 0 mm 1 m/s 611 mmHg 95%
    23:00 -3°C° 0 mm 1 m/s 610 mmHg 94%
    Voir plus